Tracking 19575 objects as of 20-Feb-2019
HD Live streaming from Space Station
objects crossing your sky now

OSCAR 27

Track OSCAR 27 now!
10-day predictions
OSCAR 27 is classified as:


NORAD ID: 18361
Int'l Code: 1987-080A
Perigee: 1,021.0 km
Apogee: 1,178.6 km
Inclination: 90.3 °
Period: 107.1 minutes
Semi major axis: 7470 km
RCS: 1.5699 m2 (large)
Launch date: September 16, 1987
Source: United States (US)
Launch site: AIR FORCE WESTERN TEST RANGE (AFWTR)
aabbcc
Your satellite tracking list
Your tracking list is empty




NASA's NSSDC Master Catalog

Two Line Element Set (TLE):
1 18361U 87080A   19050.86358768  .00000039  00000-0  49278-4 0  9994
2 18361  90.3243 355.4224 0105438 146.1365 214.6575 13.44468551541498
Source of the keplerian elements: AFSPC